Location: ??????
(55.6500°N, 37.8000°E)
Time: 12:31:30
(UTC+00:00)

Cosmos 2360 Rocket - Pass Details

Date: 14 April 2024
Orbit: 832 x 845 km, 71.0° (Epoch: 17 May)

Event Time Altitude Azimuth Distance (km) Brightness Sun altitude
Exits shadow 00:10:10 24° 246° (WSW) 1,658 3.2 -16.7°
Maximum altitude 00:13:22 53° 313° (NW) 1,032 2.6 -16.4°
Drops below altitude 10° 00:18:54 10° 30° (NNE) 2,467 5.9 -15.9°
Sets 00:21:26 0° 36° (NE) 3,407 7.1 -15.7°
